Location: Brachstadt
(48.6975°N, 10.6755°E)
Time: 05:35:59
(UTC+00:00)

Cosmos 1943 - Pass Details

Date: 18 September 2020
Orbit: 833 x 850 km, 71.0° (Epoch: 29 October)

Event Time Altitude Azimuth Distance (km) Brightness Sun altitude
Rises 18:01:20 0° 331° (NNW) 3,400 7.0 -7.1°
Reaches altitude 10° 18:03:47 10° 331° (NNW) 2,464 6.2 -7.5°
Maximum altitude 18:09:27 87° 244° (WSW) 850 3.3 -8.4°
Drops below altitude 10° 18:15:07 10° 155° (SSE) 2,460 5.3 -9.3°
Sets 18:17:33 0° 155° (SSE) 3,394 6.0 -9.7°
